M I D A S
Marine Information and Data Acquisition System
Tripno 367 of the Zeeleeuw from 2002-12-11 07:54:24 to 2002-12-11 13:24:04
Back to CruiseResearch ActivitiesStationsMapUnderway DataData graphs

EquipmentUnitsComment
TimeDGPSUTC
LatitudeDGPSDM.mWGS84
LongitudeDGPSDM.mWGS84
TemperatureSBE03/SBE38deg celciusITS90
ConductivitySBE21S/mITS90
SalinitySBE21 Practical Salinity Units
ChlorophylAChelsea fluorimeterg/lCalibrated in Aceton
Missing or incorrect values are displayed as -999
Sea surface data collected by the RV Zeeleeuw from 2002-12-11 07:54:24 to 2002-12-11 13:24:04
                                                                                    Next 1000 lines
Time Latitude Longitude Temperature Conductivity Salinity ChlorophylA
2002-12-11 07:54:33 51°13.589 2°56.13 11.649916 0.251671 1.485746  
2002-12-11 07:54:36 51°13.589 2°56.13 11.649916 0.251671 1.485746  
2002-12-11 07:54:43 51°13.589 2°56.13 11.649184 0.251567 1.485122  
2002-12-11 07:54:48 51°13.589 2°56.13 11.648818 0.251671 1.485771  
2002-12-11 07:54:53 51°13.589 2°56.13 11.648041 0.251567 1.485147  
2002-12-11 07:54:58 51°13.589 2°56.13 11.648041 0.251671 1.485796  
2002-12-11 07:55:03 51°13.588 2°56.13 11.647949 0.251671 1.485821  
2002-12-11 07:55:08 51°13.588 2°56.13 11.647949 0.251671 1.485821  
2002-12-11 07:55:13 51°13.588 2°56.13 11.648132 0.251671 1.485846  
2002-12-11 07:55:17 51°13.588 2°56.129 11.648407 0.251671 1.485846  
2002-12-11 07:55:23 51°13.588 2°56.129 11.648635 0.251567 1.485223  
2002-12-11 07:55:27 51°13.588 2°56.129 11.648818 0.251671 1.485897  
2002-12-11 07:55:32 51°13.588 2°56.129 11.648452 0.251671 1.485897  
2002-12-11 07:55:37 51°13.588 2°56.129 11.648452 0.251671 1.485897  
2002-12-11 07:55:43 51°13.588 2°56.128 11.187762 0.251671 1.485922  
2002-12-11 07:55:47 51°13.588 2°56.128 11.022522 0.251671 1.485947  
2002-12-11 07:55:52 51°13.588 2°56.128 11.076295 0.251567 1.485323  
2002-12-11 07:55:56 51°13.587 2°56.128 11.117668 0.251567 1.485323  
2002-12-11 07:56:02 51°13.587 2°56.128 11.168691 0.251567 1.485348  
2002-12-11 07:56:07 51°13.587 2°56.127 11.192046 0.251671 1.486022  
2002-12-11 07:56:12 51°13.587 2°56.128 11.192046 0.251671 1.486022  
2002-12-11 07:56:16 51°13.587 2°56.128 11.186933 0.251567 1.485399  
2002-12-11 07:56:22 51°13.587 2°56.128 11.19504 0.251671 1.486048  
2002-12-11 07:56:28 51°13.586 2°56.128 11.255482 0.251567 1.485399  
2002-12-11 07:56:32 51°13.585 2°56.129 11.287591 0.251567 1.485399  
2002-12-11 07:56:37 51°13.584 2°56.131 11.287591 0.251567 1.485399  
2002-12-11 07:56:42 51°13.582 2°56.133 11.303455 0.251567 1.485449  
2002-12-11 07:56:47 51°13.58 2°56.136 5.949429 0.251567 1.485424  
2002-12-11 07:56:53 51°13.576 2°56.14 5.239501 0.251567 1.485449  
2002-12-11 07:56:58 51°13.573 2°56.145 5.292726 0.251567 1.485474  
2002-12-11 07:57:04 51°13.569 2°56.15 5.86585 0.251567 1.485499  
2002-12-11 07:57:08 51°13.566 2°56.153 5.86585 0.251567 1.485499  
2002-12-11 07:57:12 51°13.563 2°56.157 5.475992 0.251567 1.485524  
2002-12-11 07:57:17 51°13.558 2°56.161 5.402216 0.251567 1.48555  
2002-12-11 07:57:22 51°13.554 2°56.166 5.338139 0.251567 1.48555  
2002-12-11 07:57:27 51°13.55 2°56.171 5.336071 0.251567 1.485575  
2002-12-11 07:57:32 51°13.546 2°56.176 5.369051 0.251567 1.4856  
2002-12-11 07:57:37 51°13.543 2°56.182 5.369051 0.251567 1.4856  
2002-12-11 07:57:41 51°13.54 2°56.186 5.451527 0.251567 1.48565  
2002-12-11 07:57:48 51°13.536 2°56.195 5.443723 0.251567 1.4857  
2002-12-11 07:57:53 51°13.534 2°56.2 5.539678 0.251567 1.485726  
2002-12-11 07:57:57 51°13.532 2°56.205 5.645427 0.251567 1.485751  
2002-12-11 07:58:02 51°13.53 2°56.211 5.620626 0.251567 1.485801  
2002-12-11 07:58:07 51°13.529 2°56.218 5.672075 0.251567 1.485776  
2002-12-11 07:58:12 51°13.529 2°56.224 5.672075 0.251567 1.485776  
2002-12-11 07:58:17 51°13.528 2°56.23 5.573256 0.251567 1.485826  
2002-12-11 07:58:22 51°13.529 2°56.236 5.589636 0.251567 1.485877  
2002-12-11 07:58:27 51°13.529 2°56.241 5.693245 0.251567 1.485877  
2002-12-11 07:58:33 51°13.53 2°56.247 5.664499 0.251567 1.485877  
2002-12-11 07:58:38 51°13.53 2°56.252 5.664499 0.251567 1.485877  
2002-12-11 07:58:42 51°13.531 2°56.256 5.698612 0.251567 1.485877  
2002-12-11 07:58:48 51°13.532 2°56.261 5.760971 0.251567 1.485851  
2002-12-11 07:58:53 51°13.533 2°56.265 5.776451 0.251567 1.485851  
2002-12-11 07:58:57 51°13.534 2°56.268 5.819515 0.251567 1.485877  
2002-12-11 07:59:02 51°13.535 2°56.271 5.893656 0.251567 1.485877  
2002-12-11 07:59:07 51°13.536 2°56.273 5.938088 0.251567 1.485902  
2002-12-11 07:59:12 51°13.537 2°56.275 5.938088 0.251567 1.485902  
2002-12-11 07:59:17 51°13.538 2°56.276 5.991327 0.251567 1.485902  
2002-12-11 07:59:22 51°13.538 2°56.277 6.167553 0.251567 1.485902  
2002-12-11 07:59:27 51°13.539 2°56.277 6.208809 0.251567 1.485902  
2002-12-11 07:59:33 51°13.539 2°56.276 6.180296 0.251567 1.485952  
2002-12-11 07:59:36 51°13.539 2°56.275 6.180296 0.251567 1.485952  
2002-12-11 07:59:42 51°13.538 2°56.274 6.235519 0.251567 1.485977  
2002-12-11 07:59:47 51°13.538 2°56.272 6.15172 0.251567 1.485977  
2002-12-11 07:59:52 51°13.537 2°56.27 6.437892 0.251567 1.486002  
2002-12-11 07:59:58 51°13.536 2°56.267 6.418606 0.251567 1.486028  
2002-12-11 08:00:03 51°13.535 2°56.264 6.504034 0.251567 1.486053  
2002-12-11 08:00:08 51°13.534 2°56.261 6.504034 0.251567 1.486053  
2002-12-11 08:00:13 51°13.533 2°56.259 6.457469 0.251567 1.486028  
2002-12-11 08:00:18 51°13.531 2°56.256 6.44161 0.251567 1.486028  
2002-12-11 08:00:23 51°13.53 2°56.254 6.524532 0.251567 1.486078  
2002-12-11 08:00:28 51°13.529 2°56.252 6.605962 0.251567 1.486053  
2002-12-11 08:00:32 51°13.529 2°56.25 6.711972 0.251567 1.486028  
2002-12-11 08:00:38 51°13.529 2°56.249 6.711972 0.251567 1.486028  
2002-12-11 08:00:43 51°13.529 2°56.249 6.735215 0.251567 1.486028  
2002-12-11 08:00:48 51°13.53 2°56.248 6.810019 0.251567 1.486053  
2002-12-11 08:00:52 51°13.53 2°56.248 6.794198 0.251567 1.486053  
2002-12-11 08:00:58 51°13.532 2°56.248 6.818938 0.251567 1.486078  
2002-12-11 08:01:03 51°13.533 2°56.248 6.805534 0.251567 1.486103  
2002-12-11 08:01:08 51°13.534 2°56.248 6.835788 0.251567 1.486128  
2002-12-11 08:01:12 51°13.535 2°56.248 6.835788 0.251567 1.486128  
2002-12-11 08:01:18 51°13.537 2°56.247 6.880305 0.251567 1.486153  
2002-12-11 08:01:22 51°13.537 2°56.247 6.966837 0.251567 1.486229  
2002-12-11 08:01:28 51°13.538 2°56.247 6.9543 0.251567 1.486229  
2002-12-11 08:01:33 51°13.538 2°56.246 6.949088 0.251567 1.486254  
2002-12-11 08:01:36 51°13.538 2°56.246 6.949088 0.251567 1.486254  
2002-12-11 08:01:42 51°13.538 2°56.246 6.939596 0.251567 1.486279  
2002-12-11 08:01:47 51°13.537 2°56.245 7.076469 0.251567 1.486279  
2002-12-11 08:01:52 51°13.536 2°56.245 7.078334 0.251567 1.486254  
2002-12-11 08:01:58 51°13.534 2°56.245 7.100119 0.251567 1.486279  
2002-12-11 08:02:02 51°13.532 2°56.245 7.157148 0.251567 1.486254  
2002-12-11 08:02:08 51°13.53 2°56.244 7.157148 0.251567 1.486254  
2002-12-11 08:02:13 51°13.528 2°56.245 7.122682 0.251567 1.486279  
2002-12-11 08:02:18 51°13.525 2°56.245 7.137981 0.251567 1.486279  
2002-12-11 08:02:23 51°13.523 2°56.246 7.192183 0.251567 1.486279  
2002-12-11 08:02:28 51°13.521 2°56.246 7.21011 0.251567 1.486305  
2002-12-11 08:02:32 51°13.519 2°56.246 7.265867 0.251567 1.486305  
2002-12-11 08:02:38 51°13.517 2°56.246 7.265867 0.251567 1.486305  
2002-12-11 08:02:43 51°13.515 2°56.247 7.359452 0.251567 1.486305  
2002-12-11 08:02:48 51°13.513 2°56.246 7.34792 0.251567 1.48633  
2002-12-11 08:02:53 51°13.512 2°56.246 7.399357 0.251567 1.48633  
2002-12-11 08:02:58 51°13.511 2°56.246 7.434065 0.251567 1.48633  
2002-12-11 08:03:02 51°13.51 2°56.246 7.470705 0.251567 1.48638  
2002-12-11 08:03:07 51°13.51 2°56.245 7.470705 0.251567 1.48638  
2002-12-11 08:03:10 51°13.509 2°56.245 7.446459 0.251567 1.486405  
2002-12-11 08:03:17 51°13.509 2°56.244 7.505374 0.251567 1.48643  
2002-12-11 08:03:20 51°13.51 2°56.243 7.499914 0.251567 1.48643  
2002-12-11 08:03:27 51°13.51 2°56.241 7.554055 0.251567 1.48643  
2002-12-11 08:03:32 51°13.511 2°56.239 7.542704 0.251567 1.486456  
2002-12-11 08:03:37 51°13.512 2°56.236 7.672507 0.251567 1.486481  
2002-12-11 08:03:41 51°13.514 2°56.235 7.672507 0.251567 1.486481  
2002-12-11 08:03:48 51°13.516 2°56.23 7.659476 0.251567 1.486481  
2002-12-11 08:03:52 51°13.517 2°56.227 7.612043 0.251567 1.486506  
2002-12-11 08:03:56 51°13.519 2°56.224 7.667013 0.251567 1.486531  
2002-12-11 08:04:02 51°13.521 2°56.218 7.617931 0.251567 1.486506  
2002-12-11 08:04:07 51°13.524 2°56.213 7.651305 0.251567 1.486531  
2002-12-11 08:04:12 51°13.526 2°56.208 7.651305 0.251567 1.486531  
2002-12-11 08:04:16 51°13.529 2°56.203 7.718632 0.251567 1.486582  
2002-12-11 08:04:21 51°13.532 2°56.196 7.684661 0.251567 1.486556  
2002-12-11 08:04:27 51°13.536 2°56.187 7.684564 0.251567 1.486607  
2002-12-11 08:04:32 51°13.539 2°56.18 7.664679 0.251567 1.486582  
2002-12-11 08:04:37 51°13.543 2°56.172 7.686849 0.251567 1.486607  
2002-12-11 08:04:42 51°13.548 2°56.163 7.686849 0.251567 1.486607  
2002-12-11 08:04:47 51°13.552 2°56.154 7.65967 0.251567 1.486607  
2002-12-11 08:04:52 51°13.557 2°56.144 7.678925 0.251567 1.486607  
2002-12-11 08:04:56 51°13.56 2°56.137 7.736606 0.251567 1.486582  
2002-12-11 08:05:02 51°13.566 2°56.125 7.734955 0.251567 1.486682  
2002-12-11 08:05:06 51°13.569 2°56.117 7.734955 0.251567 1.486682  
2002-12-11 08:05:12 51°13.575 2°56.105 7.76987 0.251567 1.486682  
2002-12-11 08:05:16 51°13.578 2°56.097 7.777685 0.251567 1.486632  
2002-12-11 08:05:22 51°13.584 2°56.085 7.827566 0.251567 1.486682  
2002-12-11 08:05:28 51°13.589 2°56.073 7.847595 0.251567 1.486758  
2002-12-11 08:05:32 51°13.593 2°56.065 7.873628 0.251567 1.486783  
2002-12-11 08:05:37 51°13.597 2°56.055 7.873628 0.251567 1.486783  
2002-12-11 08:05:40 51°13.6 2°56.049 7.874016 0.251567 1.486783  
2002-12-11 08:05:46 51°13.605 2°56.036 7.901491 0.251567 1.486808  
2002-12-11 08:05:52 51°13.611 2°56.024 7.90183 0.251567 1.486834  
2002-12-11 08:05:57 51°13.615 2°56.013 7.935154 0.251567 1.486834  
2002-12-11 08:06:03 51°13.62 2°56 7.98617 0.251567 1.486834  
2002-12-11 08:06:07 51°13.624 2°55.992 8.028492 0.251567 1.486834  
2002-12-11 08:06:12 51°13.628 2°55.98 8.028492 0.251567 1.486834  
2002-12-11 08:06:18 51°13.634 2°55.968 8.032312 0.251567 1.486834  
2002-12-11 08:06:22 51°13.637 2°55.959 8.084605 0.251567 1.486859  
2002-12-11 08:06:24 51°13.639 2°55.955 8.091271 0.251567 1.486909  
2002-12-11 08:06:31 51°13.645 2°55.94 8.134682 0.251567 1.486909  
2002-12-11 08:06:36 51°13.65 2°55.929 8.104698 0.251567 1.486934  
2002-12-11 08:06:42 51°13.655 2°55.915 8.104698 0.251567 1.486934  
2002-12-11 08:06:47 51°13.659 2°55.904 8.101076 0.251567 1.486934  
2002-12-11 08:06:52 51°13.663 2°55.892 8.136227 0.251567 1.48696  
2002-12-11 08:06:57 51°13.668 2°55.881 8.165424 0.251567 1.48696  
2002-12-11 08:07:02 51°13.672 2°55.869 8.243155 0.251567 1.48696  
2002-12-11 08:07:08 51°13.677 2°55.856 8.243155 0.251567 1.48696  
2002-12-11 08:07:12 51°13.681 2°55.847 8.275001 0.251567 1.48696  
2002-12-11 08:07:17 51°13.685 2°55.836 8.342256 0.251567 1.48696  
2002-12-11 08:07:22 51°13.69 2°55.825 8.426501 0.251567 1.48701  
2002-12-11 08:07:28 51°13.695 2°55.812 8.475882 0.251567 1.487035  
2002-12-11 08:07:33 51°13.7 2°55.801 8.581002 0.251567 1.487035  
2002-12-11 08:07:37 51°13.704 2°55.792 8.581002 0.251567 1.487035  
2002-12-11 08:07:41 51°13.708 2°55.783 8.672405 0.251567 1.48706  
2002-12-11 08:07:47 51°13.714 2°55.77 8.752779 0.251567 1.487086  
2002-12-11 08:07:52 51°13.72 2°55.759 8.866518 0.251567 1.487111  
2002-12-11 08:07:57 51°13.725 2°55.748 8.995112 0.251567 1.487111  
2002-12-11 08:08:02 51°13.731 2°55.738 9.147264 0.251567 1.487136  
2002-12-11 08:08:06 51°13.736 2°55.73 9.147264 0.251567 1.487136  
2002-12-11 08:08:12 51°13.743 2°55.718 9.253814 0.251567 1.487136  
2002-12-11 08:08:17 51°13.75 2°55.709 9.383584 0.251567 1.487161  
2002-12-11 08:08:21 51°13.755 2°55.702 9.528261 0.251567 1.487161  
2002-12-11 08:08:27 51°13.764 2°55.693 9.691848 0.251567 1.487212  
2002-12-11 08:08:32 51°13.771 2°55.685 9.856669 0.251567 1.487237  
2002-12-11 08:08:37 51°13.779 2°55.679 9.995329 0.251567 1.487262  
2002-12-11 08:08:42 51°13.786 2°55.672 9.995329 0.251567 1.487262  
2002-12-11 08:08:47 51°13.794 2°55.665 10.135613 0.251567 1.487287  
2002-12-11 08:08:52 51°13.802 2°55.659 10.246213 0.251567 1.487313  
2002-12-11 08:08:57 51°13.81 2°55.653 10.390763 0.251567 1.487338  
2002-12-11 08:09:02 51°13.818 2°55.647 10.531645 0.251567 1.487338  
2002-12-11 08:09:07 51°13.826 2°55.642 10.719048 0.251567 1.487338  
2002-12-11 08:09:12 51°13.834 2°55.636 10.719048 0.251567 1.487338  
2002-12-11 08:09:16 51°13.84 2°55.632 10.927193 0.251567 1.487363  
2002-12-11 08:09:22 51°13.85 2°55.626 11.113149 0.251567 1.487363  
2002-12-11 08:09:27 51°13.859 2°55.621 11.263119 0.251567 1.487388  
2002-12-11 08:09:32 51°13.867 2°55.616 11.38387 0.251567 1.487413  
2002-12-11 08:09:37 51°13.876 2°55.611 11.38387 0.251567 1.487413  
2002-12-11 08:09:41 51°13.883 2°55.607 11.46891 0.251567 1.487439  
2002-12-11 08:09:48 51°13.894 2°55.599 11.585027 0.251567 1.487464  
2002-12-11 08:09:53 51°13.903 2°55.594 11.756949 0.251567 1.487464  
2002-12-11 08:09:58 51°13.911 2°55.589 11.921592 0.251567 1.487464  
2002-12-11 08:10:03 51°13.92 2°55.584 12.107815 0.251567 1.487489  
2002-12-11 08:10:06 51°13.925 2°55.581 12.217738 0.251567 1.48754  
2002-12-11 08:10:12 51°13.935 2°55.575 12.217738 0.251567 1.48754  
2002-12-11 08:10:16 51°13.942 2°55.57 12.502364 0.251567 1.487565  
2002-12-11 08:10:22 51°13.952 2°55.563 12.811716 0.251567 1.487565  
2002-12-11 08:10:26 51°13.959 2°55.558 12.852468 0.251567 1.48759  
2002-12-11 08:10:32 51°13.968 2°55.55 12.851794 0.251567 1.48759  
2002-12-11 08:10:36 51°13.974 2°55.545 12.936365 0.251567 1.487615  
2002-12-11 08:10:42 51°13.984 2°55.537 12.936365 0.251567 1.487615  
2002-12-11 08:10:47 51°13.992 2°55.53 13.056259 0.251567 1.487615  
2002-12-11 08:10:52 51°14 2°55.523 13.258359 0.251567 1.487641  
2002-12-11 08:10:57 51°14.008 2°55.516 13.459182 0.251567 1.487691  
2002-12-11 08:11:02 51°14.016 2°55.509 13.62447 0.251567 1.487691  
2002-12-11 08:11:06 51°14.022 2°55.503 13.770968 0.251567 1.487716  
2002-12-11 08:11:12 51°14.032 2°55.494 13.770968 0.251567 1.487716  
2002-12-11 08:11:17 51°14.04 2°55.486 13.888715 0.251567 1.487716  
2002-12-11 08:11:22 51°14.049 2°55.479 14.036359 0.251567 1.487767  
2002-12-11 08:11:27 51°14.057 2°55.471 14.25203 0.251567 1.487767  
2002-12-11 08:11:32 51°14.065 2°55.463 14.473896 0.251567 1.487792  
2002-12-11 08:11:36 51°14.072 2°55.457 14.649133 0.251567 1.487817  
2002-12-11 08:11:42 51°14.082 2°55.447 14.649133 0.251567 1.487817  
2002-12-11 08:11:48 51°14.093 2°55.438 14.800927 0.251567 1.487817  
2002-12-11 08:11:53 51°14.103 2°55.431 14.914059 0.251567 1.487842  
2002-12-11 08:11:57 51°14.111 2°55.425 15.152998 0.251567 1.487817  
2002-12-11 08:12:02 51°14.121 2°55.417 15.377385 0.251567 1.487868  
2002-12-11 08:12:07 51°14.132 2°55.408 15.377385 0.251567 1.487868  
2002-12-11 08:12:10 51°14.139 2°55.403 15.577529 0.251567 1.487893  
2002-12-11 08:12:16 51°14.152 2°55.392 15.728209 0.251567 1.487943  
2002-12-11 08:12:22 51°14.165 2°55.38 15.904448 0.251567 1.487969  
2002-12-11 08:12:28 51°14.178 2°55.367 16.218528 0.251567 1.487969  
2002-12-11 08:12:32 51°14.187 2°55.358 16.413026 0.251567 1.487994  
2002-12-11 08:12:37 51°14.199 2°55.346 16.650599 0.251567 1.48807  
2002-12-11 08:12:42 51°14.209 2°55.332 16.650599 0.251567 1.48807  
2002-12-11 08:12:46 51°14.217 2°55.321 16.862845 0.251567 1.48807  
2002-12-11 08:12:52 51°14.23 2°55.303 17.083932 0.251567 1.488095  
2002-12-11 08:12:57 51°14.24 2°55.287 17.399349 0.251567 1.488095  
2002-12-11 08:13:01 51°14.248 2°55.275 17.54407 0.251567 1.48812  
2002-12-11 08:13:06 51°14.258 2°55.259 17.804174 0.251567 1.488145  
2002-12-11 08:13:12 51°14.269 2°55.238 17.804174 0.251567 1.488145  
2002-12-11 08:13:17 51°14.279 2°55.221 17.994833 0.251567 1.488145  
2002-12-11 08:13:21 51°14.286 2°55.207 18.283367 0.251567 1.488196  
2002-12-11 08:13:27 51°14.297 2°55.185 18.418142 0.251567 1.488221  
2002-12-11 08:13:32 51°14.306 2°55.167 18.565173 0.251567 1.488246  
2002-12-11 08:13:37 51°14.315 2°55.149 18.565173 0.251567 1.488246  
2002-12-11 08:13:42 51°14.324 2°55.131 18.688973 0.251567 1.488246  
2002-12-11 08:13:47 51°14.333 2°55.112 18.929054 0.251567 1.488272  
2002-12-11 08:13:52 51°14.342 2°55.093 19.094445 0.251567 1.488297  
2002-12-11 08:13:57 51°14.351 2°55.073 19.250038 0.251567 1.488322  
2002-12-11 08:14:02 51°14.36 2°55.052 19.21997 0.251567 1.488297  
2002-12-11 08:14:07 51°14.369 2°55.032 19.377816 0.251567 1.488322  
2002-12-11 08:14:12 51°14.379 2°55.011 19.377816 0.251567 1.488322  
2002-12-11 08:14:16 51°14.388 2°54.995 19.554123 0.251567 1.488398  
2002-12-11 08:14:22 51°14.403 2°54.973 20.170278 0.251567 1.488423  
2002-12-11 08:14:28 51°14.418 2°54.953 20.063102 0.251567 1.488474  
2002-12-11 08:14:32 51°14.43 2°54.941 19.985678 0.251567 1.488499  
2002-12-11 08:14:37 51°14.444 2°54.925 20.758875 0.251567 1.488423  
2002-12-11 08:14:40 51°14.453 2°54.916 20.758875 0.251567 1.488423  
2002-12-11 08:14:46 51°14.47 2°54.897 20.804017 0.251567 1.488423  
2002-12-11 08:14:56 51°14.5 2°54.866 21.242253 0.251567 1.488322  
2002-12-11 08:15:02 51°14.519 2°54.847 21.376475 0.251567 1.488322  
2002-12-11 08:15:08 51°14.537 2°54.828 21.108573 0.251567 1.488398  
2002-12-11 08:15:13 51°14.552 2°54.812 21.837863 0.251567 1.488524  
2002-12-11 08:15:18 51°14.567 2°54.797 21.837863 0.251567 1.488524  
2002-12-11 08:15:23 51°14.582 2°54.782 22.671319 0.251567 1.48855  
2002-12-11 08:15:28 51°14.598 2°54.766 22.021522 0.251567 1.4886  
2002-12-11 08:15:32 51°14.61 2°54.753 22.320923 0.251567 1.488625  
2002-12-11 08:15:36 51°14.622 2°54.741 22.592396 0.251567 1.488651  
2002-12-11 08:15:41 51°14.637 2°54.725 22.592396 0.251567 1.488651  
2002-12-11 08:15:48 51°14.659 2°54.704 23.090835 0.251567 1.488625  
2002-12-11 08:15:53 51°14.674 2°54.689 23.500754 0.251567 1.488676  
2002-12-11 08:15:58 51°14.688 2°54.673 24.636704 0.251567 1.488575  
2002-12-11 08:16:03 51°14.704 2°54.657 24.442449 0.251567 1.488651  
2002-12-11 08:16:08 51°14.72 2°54.642 23.839831 0.251567 1.488651  
2002-12-11 08:16:12 51°14.732 2°54.63 24.066022 0.251567 1.488802  
2002-12-11 08:16:18 51°14.75 2°54.612 24.066022 0.251567 1.488802  
2002-12-11 08:16:23 51°14.766 2°54.596 28.096638 0.251567 1.488752  
2002-12-11 08:16:28 51°14.782 2°54.58 26.667584 0.251567 1.488954  
2002-12-11 08:16:32 51°14.794 2°54.568 28.845039 0.251567 1.488878  
2002-12-11 08:16:38 51°14.813 2°54.549 22.291702 0.252504 1.493593  
2002-12-11 08:16:41 51°14.823 2°54.54 7.216379 0.251567 1.488929  
2002-12-11 08:16:48 51°14.846 2°54.518 7.216379 0.251567 1.488929  
2002-12-11 08:16:53 51°14.862 2°54.502 17.27057 0.266669 1.562419  
2002-12-11 08:16:58 51°14.878 2°54.487 25.791129 0.251567 1.488853  
2002-12-11 08:17:04 51°14.897 2°54.468 26.456891 0.251567 1.486733  
2002-12-11 08:17:08 51°14.91 2°54.455 26.314389 0.251567 1.486834  
2002-12-11 08:17:13 51°14.926 2°54.439 26.314389 0.251567 1.486834  
2002-12-11 08:17:18 51°14.942 2°54.423 27.02244 0.251463 1.486436  
2002-12-11 08:17:24 51°14.961 2°54.404 6.724409 0.25188 1.491818  
2002-12-11 08:17:28 51°14.974 2°54.392 6.765157 0.280108 1.671379  
2002-12-11 08:17:33 51°14.99 2°54.376 6.713058 0.338667 2.044405  
2002-12-11 08:17:38 51°15.006 2°54.361 6.852338 0.352529 2.133515  
2002-12-11 08:17:43 51°15.022 2°54.345 12.587605 0.358575 2.172487  
2002-12-11 08:17:48 51°15.038 2°54.33 12.587605 0.358575 2.172487  
2002-12-11 08:17:52 51°15.051 2°54.317 14.39392 0.358783 2.173752  
2002-12-11 08:17:58 51°15.07 2°54.298 16.291177 0.358262 2.170292  
2002-12-11 08:18:03 51°15.086 2°54.282 16.364688 0.358366 2.170998  
2002-12-11 08:18:08 51°15.102 2°54.266 18.190077 0.356699 2.16021  
2002-12-11 08:18:13 51°15.118 2°54.25 18.190077 0.356699 2.16021  
2002-12-11 08:18:18 51°15.134 2°54.233 17.773307 0.356803 2.160917  
2002-12-11 08:18:24 51°15.153 2°54.213 19.099855 0.356594 2.159504  
2002-12-11 08:18:28 51°15.166 2°54.2 18.949103 0.355761 2.154148  
2002-12-11 08:18:32 51°15.179 2°54.187 18.852341 0.352634 2.134111  
2002-12-11 08:18:38 51°15.198 2°54.168 19.632919 0.254796 1.513167  
2002-12-11 08:18:43 51°15.214 2°54.151 19.71321 0.196692 1.152017  
2002-12-11 08:18:48 51°15.23 2°54.135 19.71321 0.196692 1.152017  
2002-12-11 08:18:53 51°15.246 2°54.118 19.958596 0.184617 1.077807  
2002-12-11 08:18:58 51°15.262 2°54.101 19.470999 0.182743 1.066317  
2002-12-11 08:19:04 51°15.282 2°54.081 20.363252 0.18139 1.057988  
2002-12-11 08:19:08 51°15.295 2°54.068 19.453669 0.180765 1.054072  
2002-12-11 08:19:13 51°15.311 2°54.051 20.582955 0.179828 1.048175  
2002-12-11 08:19:18 51°15.327 2°54.035 20.582955 0.179828 1.048175  
2002-12-11 08:19:23 51°15.344 2°54.018 19.828222 0.129461 0.742819  
2002-12-11 08:19:28 51°15.36 2°54.001 20.253386 0.054993 0.305584  
2002-12-11 08:19:32 51°15.373 2°53.988 20.924774 0.008428 0.048639  
2002-12-11 08:19:38 51°15.393 2°53.969 21.061791 0.006349 0.03802  
2002-12-11 08:19:41 51°15.403 2°53.958 20.059099 0.004271 0.027653  
2002-12-11 08:19:48 51°15.426 2°53.935 20.059099 0.004271 0.027653  
2002-12-11 08:19:52 51°15.439 2°53.922 21.394649 0.00344 0.023611  
2002-12-11 08:19:58 51°15.459 2°53.902 21.015417 0.003232 0.022614  
2002-12-11 08:20:04 51°15.479 2°53.882 20.956758 0.003024 0.021623  
2002-12-11 08:20:08 51°15.492 2°53.869 21.426501 0.003128 0.022118  
2002-12-11 08:20:13 51°15.508 2°53.853 21.238754 0.003232 0.022614  
2002-12-11 08:20:18 51°15.525 2°53.836 21.238754 0.003232 0.022614  
2002-12-11 08:20:21 51°15.535 2°53.826 21.372904 0.003336 0.023113  
2002-12-11 08:20:28 51°15.557 2°53.803 21.187164 0.00344 0.023612  
2002-12-11 08:20:33 51°15.573 2°53.786 21.074226 0.003544 0.024113  
2002-12-11 08:20:38 51°15.59 2°53.769 21.136531 0.003648 0.024616  
2002-12-11 08:20:42 51°15.602 2°53.756 20.142136 0.003751 0.025119  
2002-12-11 08:20:48 51°15.622 2°53.736 20.142136 0.003751 0.025119  
2002-12-11 08:20:51 51°15.632 2°53.726 21.739381 0.003855 0.025624  
2002-12-11 08:20:58 51°15.654 2°53.703 21.464403 0.003855 0.025624  
2002-12-11 08:21:03 51°15.671 2°53.687 21.920222 0.003855 0.025624  
2002-12-11 08:21:08 51°15.687 2°53.67 22.217615 0.003959 0.02613  
2002-12-11 08:21:13 51°15.703 2°53.654 21.850992 0.003959 0.02613  
2002-12-11 08:21:17 51°15.717 2°53.642 21.850992 0.003959 0.02613  
2002-12-11 08:21:24 51°15.74 2°53.618 21.860098 0.003959 0.02613  
2002-12-11 08:21:28 51°15.753 2°53.605 22.914521 0.004063 0.026638  
2002-12-11 08:21:33 51°15.768 2°53.589 23.283528 0.004063 0.026638  
2002-12-11 08:21:38 51°15.785 2°53.572 22.354792 0.004063 0.026639  
2002-12-11 08:21:44 51°15.804 2°53.553 22.354792 0.004063 0.026639  
2002-12-11 08:21:48 51°15.817 2°53.54 22.865255 0.004063 0.026639  
2002-12-11 08:21:52 51°15.83 2°53.526 21.967978 0.004063 0.02664  
2002-12-11 08:21:58 51°15.849 2°53.506 22.163511 0.004063 0.02664  
2002-12-11 08:22:03 51°15.866 2°53.49 21.571181 0.004063 0.02664  
2002-12-11 08:22:08 51°15.882 2°53.474 21.290902 0.004063 0.02664  
2002-12-11 08:22:12 51°15.895 2°53.46 21.290902 0.004063 0.02664  
2002-12-11 08:22:18 51°15.915 2°53.441 22.665395 0.004063 0.02664  
2002-12-11 08:22:23 51°15.931 2°53.425 22.028286 0.004063 0.026641  
2002-12-11 08:22:28 51°15.948 2°53.408 22.445276 0.003959 0.026133  
2002-12-11 08:22:33 51°15.964 2°53.391 22.873688 0.003959 0.026133  
2002-12-11 08:22:38 51°15.98 2°53.375 23.25458 0.003959 0.026133  
2002-12-11 08:22:43 51°15.997 2°53.359 23.815286 0.003959 0.026132  
2002-12-11 08:22:48 51°16.014 2°53.342 23.815286 0.003959 0.026132  
2002-12-11 08:22:53 51°16.029 2°53.326 23.695585 0.003959 0.02613  
2002-12-11 08:22:58 51°16.045 2°53.309 23.302615 0.003959 0.02613  
2002-12-11 08:23:03 51°16.062 2°53.293 23.308873 0.003959 0.026131  
2002-12-11 08:23:08 51°16.079 2°53.276 23.948459 0.003959 0.026131  
2002-12-11 08:23:12 51°16.092 2°53.263 22.614475 0.003959 0.026131  
2002-12-11 08:23:18 51°16.111 2°53.244 22.614475 0.003959 0.026131  
2002-12-11 08:23:21 51°16.121 2°53.234 23.479755 0.003959 0.026131  
2002-12-11 08:23:28 51°16.144 2°53.211 23.72213 0.003959 0.02613  
2002-12-11 08:23:32 51°16.157 2°53.197 22.95568 0.003855 0.025624  
2002-12-11 08:23:38 51°16.176 2°53.177 23.203805 0.003959 0.026131  
2002-12-11 08:23:42 51°16.189 2°53.164 22.764558 0.003855 0.025625  
2002-12-11 08:23:48 51°16.208 2°53.144 22.764558 0.003855 0.025625  
2002-12-11 08:23:53 51°16.224 2°53.128 22.706541 0.003855 0.025625  
2002-12-11 08:23:58 51°16.241 2°53.111 23.506456 0.003855 0.025625  
2002-12-11 08:24:02 51°16.254 2°53.098 22.297931 0.003855 0.025626  
2002-12-11 08:24:08 51°16.273 2°53.079 22.546226 0.003855 0.025627  
2002-12-11 08:24:12 51°16.285 2°53.066 22.546226 0.003855 0.025627  
2002-12-11 08:24:18 51°16.305 2°53.046 22.167867 0.003855 0.025628  
2002-12-11 08:24:21 51°16.315 2°53.037 21.583449 0.003855 0.025629  
2002-12-11 08:24:28 51°16.338 2°53.014 21.673651 0.003855 0.02563  
2002-12-11 08:24:32 51°16.351 2°53.001 21.601807 0.003751 0.025125  
2002-12-11 08:24:38 51°16.37 2°52.982 22.562114 0.003751 0.025126  
2002-12-11 08:24:43 51°16.386 2°52.965 21.810139 0.003751 0.025126  
2002-12-11 08:24:48 51°16.403 2°52.949 21.810139 0.003751 0.025126  
2002-12-11 08:24:52 51°16.416 2°52.936 22.450045 0.003751 0.025127  
2002-12-11 08:24:58 51°16.436 2°52.917 20.749067 0.003751 0.025127  
2002-12-11 08:25:02 51°16.449 2°52.903 22.718031 0.003751 0.025128  
2002-12-11 08:25:08 51°16.468 2°52.884 22.230831 0.003751 0.025128  
2002-12-11 08:25:13 51°16.485 2°52.867 22.230831 0.003751 0.025128  
2002-12-11 08:25:18 51°16.501 2°52.851 21.761449 0.003751 0.025129  
2002-12-11 08:25:23 51°16.517 2°52.834 22.206083 0.003751 0.025129  
2002-12-11 08:25:28 51°16.534 2°52.819 22.396351 0.003751 0.025129  
2002-12-11 08:25:33 51°16.55 2°52.802 22.252277 0.003648 0.024624  
2002-12-11 08:25:38 51°16.567 2°52.786 22.851261 0.003648 0.024625  
2002-12-11 08:25:43 51°16.583 2°52.77 22.8808 0.003648 0.024625  
2002-12-11 08:25:48 51°16.599 2°52.754 22.8808 0.003648 0.024625  
2002-12-11 08:25:53 51°16.616 2°52.738 22.486626 0.003648 0.024625  
2002-12-11 08:25:58 51°16.632 2°52.721 22.028168 0.003648 0.024625  
2002-12-11 08:26:03 51°16.65 2°52.707 22.315166 0.003648 0.024626  
2002-12-11 08:26:08 51°16.666 2°52.691 22.566837 0.003648 0.024626  
2002-12-11 08:26:11 51°16.676 2°52.682 22.734192 0.003648 0.024626  
2002-12-11 08:26:18 51°16.7 2°52.662 22.734192 0.003648 0.024626  
2002-12-11 08:26:22 51°16.714 2°52.65 21.7194 0.003648 0.024626  
2002-12-11 08:26:28 51°16.734 2°52.633 22.501512 0.003648 0.024627  
2002-12-11 08:26:32 51°16.748 2°52.623 22.441483 0.003648 0.024627  
2002-12-11 08:26:38 51°16.768 2°52.605 21.933257 0.003648 0.024627  
2002-12-11 08:26:43 51°16.785 2°52.594 21.933257 0.003648 0.024627  
2002-12-11 08:26:48 51°16.803 2°52.583 21.482158 0.003648 0.024627  
2002-12-11 08:26:53 51°16.822 2°52.573 21.951525 0.003648 0.024628  
2002-12-11 08:26:58 51°16.84 2°52.563 22.368843 0.003544 0.024124  
2002-12-11 08:27:03 51°16.858 2°52.554 21.556062 0.003544 0.024124  
2002-12-11 08:27:08 51°16.877 2°52.545 22.502996 0.003544 0.024124  
2002-12-11 08:27:12 51°16.891 2°52.537 22.502996 0.003544 0.024124  
2002-12-11 08:27:18 51°16.913 2°52.526 22.217419 0.003544 0.024124  
2002-12-11 08:27:24 51°16.935 2°52.515 22.83882 0.003544 0.024125  
2002-12-11 08:27:28 51°16.95 2°52.508 22.436713 0.003544 0.024125  
2002-12-11 08:27:33 51°16.968 2°52.5 21.457189 0.003544 0.024125  
2002-12-11 08:27:38 51°16.986 2°52.491 22.498582 0.003544 0.024126  
2002-12-11 08:27:44 51°17.008 2°52.481 22.498582 0.003544 0.024126  
2002-12-11 08:27:48 51°17.022 2°52.474 22.31642 0.003544 0.024126  
2002-12-11 08:27:53 51°17.04 2°52.465 22.475959 0.003544 0.024126  
2002-12-11 08:27:58 51°17.058 2°52.457 21.285061 0.00344 0.023623  
2002-12-11 08:28:03 51°17.076 2°52.448 22.470214 0.00344 0.023623  
2002-12-11 08:28:08 51°17.095 2°52.44 21.861241 0.00344 0.023623  
2002-12-11 08:28:12 51°17.109 2°52.433 22.239692 0.00344 0.023624  
2002-12-11 08:28:18 51°17.132 2°52.424 22.239692 0.00344 0.023624  
2002-12-11 08:28:24 51°17.154 2°52.416 22.889892 0.00344 0.023624  
2002-12-11 08:28:28 51°17.169 2°52.41 22.729286 0.00344 0.023624  
2002-12-11 08:28:32 51°17.184 2°52.405 21.262806 0.00344 0.023625  
2002-12-11 08:28:38 51°17.207 2°52.396 21.264435 0.00344 0.023625  
2002-12-11 08:28:42 51°17.222 2°52.391 21.932902 0.00344 0.023625  
2002-12-11 08:28:48 51°17.244 2°52.382 21.932902 0.00344 0.023625  
2002-12-11 08:28:53 51°17.263 2°52.375 22.307254 0.00344 0.023626  
2002-12-11 08:28:58 51°17.282 2°52.368 22.1703 0.00344 0.023626  
2002-12-11 08:29:03 51°17.301 2°52.361 21.644044 0.00344 0.023626  
2002-12-11 08:29:08 51°17.319 2°52.353 21.635464 0.00344 0.023627  
2002-12-11 08:29:13 51°17.338 2°52.346 22.068425 0.003336 0.023124  
2002-12-11 08:29:18 51°17.357 2°52.339 22.068425 0.003336 0.023124  
2002-12-11 08:29:23 51°17.375 2°52.332 21.776525 0.003336 0.023124  
2002-12-11 08:29:28 51°17.394 2°52.324 21.925578 0.003336 0.023124  
2002-12-11 08:29:33 51°17.413 2°52.317 21.480018 0.003336 0.023125  
2002-12-11 08:29:38 51°17.432 2°52.31 21.25581 0.003336 0.023125  
2002-12-11 08:29:43 51°17.45 2°52.302 21.892018 0.003336 0.023125  
2002-12-11 08:29:48 51°17.469 2°52.295 21.892018 0.003336 0.023125  
2002-12-11 08:29:53 51°17.488 2°52.288 21.280571 0.003336 0.023126  
2002-12-11 08:29:58 51°17.507 2°52.281 21.952469 0.003336 0.023126  
2002-12-11 08:30:04 51°17.53 2°52.272 21.880552 0.003336 0.023126  
2002-12-11 08:30:08 51°17.545 2°52.266 21.044329 0.003336 0.023127  
2002-12-11 08:30:13 51°17.563 2°52.258 20.923976 0.003336 0.023127  
2002-12-11 08:30:18 51°17.583 2°52.251 20.923976 0.003336 0.023127  
2002-12-11 08:30:21 51°17.594 2°52.247 21.745066 0.003336 0.023127  
2002-12-11 08:30:28 51°17.619 2°52.236 21.372983 0.003336 0.023128  
2002-12-11 08:30:33 51°17.637 2°52.229 21.507949 0.003336 0.023128  
2002-12-11 08:30:38 51°17.656 2°52.222 22.272972 0.003336 0.023128  
2002-12-11 08:30:44 51°17.679 2°52.213 21.138721 0.003336 0.023128  
2002-12-11 08:30:48 51°17.694 2°52.209 21.138721 0.003336 0.023128  
2002-12-11 08:30:53 51°17.713 2°52.202 21.035836 0.003232 0.022625  
2002-12-11 08:30:58 51°17.732 2°52.196 22.075892 0.003232 0.022625  
2002-12-11 08:31:03 51°17.751 2°52.19 21.701744 0.003232 0.022625  
2002-12-11 08:31:08 51°17.77 2°52.183 22.491315 0.003232 0.022625  
2002-12-11 08:31:13 51°17.789 2°52.178 21.561801 0.003232 0.022626  
2002-12-11 08:31:18 51°17.808 2°52.173 21.561801 0.003232 0.022626  
2002-12-11 08:31:24 51°17.831 2°52.169 22.28367 0.003232 0.022626  
2002-12-11 08:31:28 51°17.846 2°52.166 22.487056 0.003232 0.022626  
2002-12-11 08:31:32 51°17.862 2°52.164 21.394927 0.003232 0.022626  
2002-12-11 08:31:38 51°17.885 2°52.159 21.846222 0.003232 0.022626  
2002-12-11 08:31:43 51°17.904 2°52.157 21.846222 0.003232 0.022626  
2002-12-11 08:31:48 51°17.923 2°52.154 21.9788 0.003232 0.022626  
2002-12-11 08:31:53 51°17.942 2°52.151 21.486358 0.003232 0.022627  
2002-12-11 08:31:58 51°17.961 2°52.149 22.150086 0.003232 0.022627  
2002-12-11 08:32:04 51°17.984 2°52.146 21.789428 0.003232 0.022627  
2002-12-11 08:32:08 51°17.999 2°52.143 22.209928 0.003232 0.022627  
2002-12-11 08:32:12 51°18.014 2°52.14 22.209928 0.003232 0.022627  
2002-12-11 08:32:18 51°18.037 2°52.137 21.856589 0.003232 0.022627  
2002-12-11 08:32:22 51°18.052 2°52.135 21.360719 0.003232 0.022627  
2002-12-11 08:32:28 51°18.076 2°52.131 21.688271 0.003232 0.022627  
2002-12-11 08:32:32 51°18.091 2°52.13 22.037999 0.003232 0.022628  
2002-12-11 08:32:38 51°18.114 2°52.129 21.543552 0.003232 0.022628  
2002-12-11 08:32:43 51°18.133 2°52.128 21.861241 0.003128 0.022124  
2002-12-11 08:32:48 51°18.153 2°52.13 21.861241 0.003128 0.022124  
2002-12-11 08:32:53 51°18.172 2°52.132 22.10147 0.003128 0.022124  
2002-12-11 08:32:58 51°18.191 2°52.138 21.451996 0.003128 0.022124  
2002-12-11 08:33:04 51°18.213 2°52.148 21.828636 0.003128 0.022124  
2002-12-11 08:33:08 51°18.227 2°52.155 21.443036 0.003128 0.022124  
2002-12-11 08:33:14 51°18.247 2°52.169 21.163643 0.003128 0.022124  
2002-12-11 08:33:18 51°18.26 2°52.179 21.163643 0.003128 0.022124  
2002-12-11 08:33:23 51°18.276 2°52.193 21.397981 0.003128 0.022125  
2002-12-11 08:33:28 51°18.292 2°52.209 22.444963 0.003128 0.022125  
2002-12-11 08:33:32 51°18.304 2°52.222 21.662387 0.003128 0.022125  
2002-12-11 08:33:38 51°18.322 2°52.241 22.455596 0.003128 0.022125  
2002-12-11 08:33:43 51°18.337 2°52.258 21.042176 0.003128 0.022125  
2002-12-11 08:33:48 51°18.351 2°52.277 21.042176 0.003128 0.022125  
2002-12-11 08:33:53 51°18.364 2°52.297 21.991352 0.003128 0.022125  
2002-12-11 08:33:58 51°18.377 2°52.318 21.531317 0.003128 0.022125  
2002-12-11 08:34:03 51°18.39 2°52.339 21.536227 0.003128 0.022125  
2002-12-11 08:34:08 51°18.402 2°52.361 22.198081 0.003128 0.022125  
2002-12-11 08:34:13 51°18.414 2°52.383 22.198081 0.003128 0.022125  
2002-12-11 08:34:18 51°18.426 2°52.405 21.557962 0.003128 0.022125  
2002-12-11 08:34:23 51°18.437 2°52.428 21.558199 0.003128 0.022125  
2002-12-11 08:34:28 51°18.448 2°52.45 21.424518 0.003024 0.021622  
2002-12-11 08:34:33 51°18.46 2°52.473 21.927035 0.003024 0.021622  
2002-12-11 08:34:38 51°18.471 2°52.496 22.127235 0.003024 0.021622  
2002-12-11 08:34:44 51°18.485 2°52.522 22.787362 0.003024 0.021622  
2002-12-11 08:34:48 51°18.494 2°52.54 22.787362 0.003024 0.021622  
2002-12-11 08:34:53 51°18.505 2°52.563 20.92126 0.003024 0.021622  
2002-12-11 08:34:58 51°18.516 2°52.586 21.970733 0.003024 0.021622  
2002-12-11 08:35:04 51°18.53 2°52.613 21.169295 0.003024 0.021622  
2002-12-11 08:35:08 51°18.539 2°52.631 21.228653 0.003024 0.021622  
2002-12-11 08:35:13 51°18.55 2°52.654 20.846611 0.003024 0.021622  
2002-12-11 08:35:18 51°18.561 2°52.676 20.846611 0.003024 0.021622  
2002-12-11 08:35:23 51°18.572 2°52.7 22.076638 0.003024 0.021622  
2002-12-11 08:35:28 51°18.582 2°52.724 21.250204 0.003024 0.021622  
2002-12-11 08:35:33 51°18.592 2°52.748 21.062708 0.003024 0.021622  
2002-12-11 08:35:38 51°18.603 2°52.772 21.379253 0.003024 0.021622  
2002-12-11 08:35:41 51°18.608 2°52.786 21.698228 0.003024 0.021622  
2002-12-11 08:35:48 51°18.622 2°52.82 21.698228 0.003024 0.021622  
2002-12-11 08:35:52 51°18.63 2°52.839 21.236288 0.003024 0.021622  
2002-12-11 08:35:57 51°18.639 2°52.862 22.162804 0.003024 0.021622  
2002-12-11 08:36:03 51°18.651 2°52.891 21.458814 0.003024 0.021622  
2002-12-11 08:36:08 51°18.66 2°52.915 20.994712 0.003024 0.021622  
2002-12-11 08:36:12 51°18.668 2°52.935 20.7656 0.003024 0.021622  
2002-12-11 08:36:18 51°18.679 2°52.964 20.7656 0.003024 0.021622  
2002-12-11 08:36:23 51°18.688 2°52.988 21.257638 0.003024 0.021622  
2002-12-11 08:36:28 51°18.698 2°53.012 20.871077 0.003024 0.021622  
2002-12-11 08:36:32 51°18.706 2°53.031 20.788493 0.00292 0.021118  
2002-12-11 08:36:38 51°18.718 2°53.06 21.19723 0.003024 0.021622  
2002-12-11 08:36:43 51°18.728 2°53.084 21.19723 0.003024 0.021622  
2002-12-11 08:36:48 51°18.738 2°53.108 20.904922 0.00292 0.021118  
2002-12-11 08:36:52 51°18.746 2°53.127 20.942185 0.00292 0.021118  
2002-12-11 08:36:58 51°18.757 2°53.156 20.798416 0.00292 0.021117  
2002-12-11 08:37:03 51°18.768 2°53.18 20.972245 0.00292 0.021117  
2002-12-11 08:37:08 51°18.778 2°53.204 20.939869 0.00292 0.021117  
2002-12-11 08:37:13 51°18.787 2°53.229 20.66606 0.00292 0.021117  
2002-12-11 08:37:18 51°18.797 2°53.253 20.66606 0.00292 0.021117  
2002-12-11 08:37:24 51°18.808 2°53.281 21.402663 0.00292 0.021117  
2002-12-11 08:37:28 51°18.817 2°53.3 21.442798 0.00292 0.021117  
2002-12-11 08:37:33 51°18.826 2°53.324 20.49023 0.00292 0.021117  
2002-12-11 08:37:38 51°18.836 2°53.347 20.576413 0.00292 0.021117  
2002-12-11 08:37:44 51°18.847 2°53.377 20.482755 0.00292 0.021117  
2002-12-11 08:37:48 51°18.855 2°53.396 20.482755 0.00292 0.021117  
2002-12-11 08:37:53 51°18.864 2°53.419 20.044421 0.00292 0.021116  
2002-12-11 08:37:58 51°18.873 2°53.443 21.021439 0.00292 0.021116  
2002-12-11 08:38:04 51°18.885 2°53.471 21.474945 0.00292 0.021116  
2002-12-11 08:38:08 51°18.893 2°53.491 20.156431 0.00292 0.021116  
2002-12-11 08:38:12 51°18.901 2°53.51 20.670308 0.00292 0.021116  
2002-12-11 08:38:18 51°18.913 2°53.538 20.670308 0.00292 0.021116  
2002-12-11 08:38:23 51°18.923 2°53.562 20.536708 0.00292 0.021116  
2002-12-11 08:38:28 51°18.932 2°53.586 20.823218 0.00292 0.021116  
2002-12-11 08:38:33 51°18.942 2°53.61 20.411182 0.00292 0.021116  
2002-12-11 08:38:38 51°18.952 2°53.635 20.388851 0.00292 0.021116  
2002-12-11 08:38:43 51°18.962 2°53.659 20.767882 0.00292 0.021116  
2002-12-11 08:38:48 51°18.971 2°53.684 20.767882 0.00292 0.021116  
2002-12-11 08:38:53 51°18.981 2°53.708 19.752773 0.00292 0.021116  
2002-12-11 08:38:58 51°18.99 2°53.733 20.278863 0.00292 0.021116  
2002-12-11 08:39:03 51°18.999 2°53.757 21.247859 0.00292 0.021115  
2002-12-11 08:39:08 51°19.008 2°53.782 20.322581 0.00292 0.021115  
2002-12-11 08:39:13 51°19.018 2°53.806 20.967216 0.002816 0.020609  
2002-12-11 08:39:18 51°19.027 2°53.831 20.967216 0.002816 0.020609  
2002-12-11 08:39:24 51°19.038 2°53.861 20.784291 0.00292 0.021115  
2002-12-11 08:39:28 51°19.046 2°53.88 21.148118 0.00292 0.021115  
2002-12-11 08:39:33 51°19.055 2°53.905 20.050446 0.002816 0.020608  
2002-12-11 08:39:38 51°19.065 2°53.93 20.87847 0.002816 0.020608  
2002-12-11 08:39:42 51°19.072 2°53.95 21.022357 0.002816 0.020608  
2002-12-11 08:39:48 51°19.083 2°53.979 21.022357 0.002816 0.020608  
2002-12-11 08:39:52 51°19.09 2°53.999 20.761878 0.002816 0.020607  
2002-12-11 08:39:58 51°19.102 2°54.028 22.058206 0.002816 0.020607  
2002-12-11 08:40:04 51°19.113 2°54.057 20.341752 0.002816 0.020607  
2002-12-11 08:40:08 51°19.121 2°54.076 21.235294 0.002816 0.020607  
2002-12-11 08:40:13 51°19.13 2°54.101 21.288836 0.002816 0.020607  
2002-12-11 08:40:18 51°19.14 2°54.125 21.288836 0.002816 0.020607  
2002-12-11 08:40:21 51°19.146 2°54.139 21.115424 0.002816 0.020606  
2002-12-11 08:40:28 51°19.159 2°54.172 21.053539 0.002816 0.020606  
2002-12-11 08:40:32 51°19.167 2°54.192 21.605407 0.002816 0.020606  
2002-12-11 08:40:38 51°19.178 2°54.221 21.503592 0.002816 0.020606  
2002-12-11 08:40:43 51°19.187 2°54.246 21.503592 0.002816 0.020606  
2002-12-11 08:40:48 51°19.197 2°54.27 20.132605 0.002816 0.020606  
2002-12-11 08:40:53 51°19.207 2°54.294 20.893496 0.002816 0.020606  
2002-12-11 08:40:58 51°19.217 2°54.318 21.291816 0.002816 0.020606  
2002-12-11 08:41:03 51°19.227 2°54.342 20.917825 0.002816 0.020605  
2002-12-11 08:41:08 51°19.236 2°54.366 20.995749 0.002816 0.020605  
2002-12-11 08:41:12 51°19.245 2°54.385 20.827377 0.002816 0.020605  
2002-12-11 08:41:18 51°19.256 2°54.414 20.827377 0.002816 0.020605  
2002-12-11 08:41:23 51°19.266 2°54.438 21.028818 0.002816 0.020605  
2002-12-11 08:41:28 51°19.275 2°54.462 20.779249 0.002816 0.020605  
2002-12-11 08:41:33 51°19.285 2°54.487 20.390099 0.002816 0.020605  
2002-12-11 08:41:38 51°19.295 2°54.511 20.773846 0.002816 0.020605  
2002-12-11 08:41:43 51°19.305 2°54.535 21.052343 0.002816 0.020605  
2002-12-11 08:41:48 51°19.314 2°54.559 21.052343 0.002816 0.020605  
2002-12-11 08:41:53 51°19.323 2°54.583 20.657681 0.002816 0.020604  
2002-12-11 08:41:58 51°19.333 2°54.608 20.847851 0.002816 0.020604  
2002-12-11 08:42:03 51°19.343 2°54.631 20.85037 0.002816 0.020604  
2002-12-11 08:42:08 51°19.353 2°54.655 20.126304 0.002712 0.020097  
2002-12-11 08:42:14 51°19.365 2°54.684 20.788173 0.002712 0.020097  
2002-12-11 08:42:18 51°19.372 2°54.704 20.788173 0.002712 0.020097  
2002-12-11 08:42:23 51°19.382 2°54.727 20.821098 0.002816 0.020604  
2002-12-11 08:42:28 51°19.392 2°54.752 20.568907 0.002816 0.020604  
2002-12-11 08:42:32 51°19.399 2°54.771 21.356074 0.002712 0.020097  
2002-12-11 08:42:38 51°19.41 2°54.8 20.916547 0.002712 0.020097  
2002-12-11 08:42:43 51°19.42 2°54.824 20.235522 0.002712 0.020096  
2002-12-11 08:42:48 51°19.43 2°54.848 20.235522 0.002712 0.020096  
2002-12-11 08:42:53 51°19.44 2°54.872 20.172094 0.002712 0.020096  
2002-12-11 08:42:58 51°19.449 2°54.896 21.370919 0.002712 0.020096  
2002-12-11 08:43:04 51°19.461 2°54.925 20.500436 0.002712 0.020096  
2002-12-11 08:43:08 51°19.468 2°54.945 20.615374 0.002712 0.020096  
2002-12-11 08:43:12 51°19.477 2°54.964 20.738776 0.002712 0.020096  
2002-12-11 08:43:18 51°19.488 2°54.993 20.738776 0.002712 0.020096  
2002-12-11 08:43:24 51°19.5 2°55.023 20.37404 0.002712 0.020096  
2002-12-11 08:43:28 51°19.508 2°55.043 20.682613 0.002712 0.020096  
2002-12-11 08:43:33 51°19.518 2°55.066 20.317022 0.002712 0.020096  
2002-12-11 08:43:38 51°19.527 2°55.091 20.438855 0.002712 0.020096  
2002-12-11 08:43:44 51°19.539 2°55.12 21.020682 0.002712 0.020096  
2002-12-11 08:43:48 51°19.547 2°55.14 21.020682 0.002712 0.020096  
2002-12-11 08:43:53 51°19.557 2°55.164 20.373316 0.002712 0.020095  
2002-12-11 08:43:58 51°19.567 2°55.188 20.707655 0.002712 0.020095  
2002-12-11 08:44:04 51°19.579 2°55.218 20.400038 0.002712 0.020095  
2002-12-11 08:44:08 51°19.587 2°55.236 20.336798 0.002712 0.020095  
2002-12-11 08:44:13 51°19.596 2°55.261 20.019506 0.002712 0.020095  
2002-12-11 08:44:18 51°19.606 2°55.285 20.019506 0.002712 0.020095  
2002-12-11 08:44:23 51°19.616 2°55.309 19.949931 0.002712 0.020095  
2002-12-11 08:44:28 51°19.626 2°55.333 20.553452 0.002712 0.020095  
2002-12-11 08:44:33 51°19.635 2°55.358 20.73325 0.002712 0.020095  
2002-12-11 08:44:38 51°19.645 2°55.381 20.454295 0.002712 0.020095  
2002-12-11 08:44:43 51°19.655 2°55.406 20.991121 0.002712 0.020095  
2002-12-11 08:44:48 51°19.665 2°55.43 20.991121 0.002712 0.020095  
2002-12-11 08:44:54 51°19.677 2°55.46 19.869788 0.002712 0.020095  
2002-12-11 08:44:58 51°19.685 2°55.479 20.570714 0.002712 0.020095  
2002-12-11 08:45:03 51°19.695 2°55.503 20.725 0.002712 0.020095  
2002-12-11 08:45:08 51°19.705 2°55.527 20.826537 0.002712 0.020094  
2002-12-11 08:45:13 51°19.714 2°55.551 19.686145 0.002712 0.020094  
2002-12-11 08:45:18 51°19.725 2°55.575 19.686145 0.002712 0.020094  
2002-12-11 08:45:23 51°19.734 2°55.599 20.738496 0.002712 0.020094  
2002-12-11 08:45:28 51°19.744 2°55.624 19.958353 0.002712 0.020094  
2002-12-11 08:45:34 51°19.756 2°55.653 20.463582 0.002608 0.019588  
2002-12-11 08:45:38 51°19.764 2°55.673 20.645854 0.002608 0.019588  
2002-12-11 08:45:43 51°19.774 2°55.696 19.884543 0.002608 0.019588  
2002-12-11 08:45:48 51°19.784 2°55.721 19.884543 0.002608 0.019588  
2002-12-11 08:45:54 51°19.796 2°55.75 19.900552 0.002608 0.019588  
2002-12-11 08:45:58 51°19.804 2°55.769 21.196514 0.002608 0.019587  
2002-12-11 08:46:03 51°19.814 2°55.793 20.260522 0.002608 0.019587  
2002-12-11 08:46:08 51°19.824 2°55.818 20.086062 0.002608 0.019587  
2002-12-11 08:46:13 51°19.833 2°55.842 20.395652 0.002608 0.019587  
2002-12-11 08:46:18 51°19.842 2°55.867 20.395652 0.002608 0.019587  
2002-12-11 08:46:23 51°19.852 2°55.891 19.593084 0.002608 0.019587  
2002-12-11 08:46:28 51°19.861 2°55.915 20.608234 0.002608 0.019587  
2002-12-11 08:46:32 51°19.869 2°55.934 19.911451 0.002608 0.019587  
2002-12-11 08:46:38 51°19.881 2°55.964 19.785658 0.002608 0.019587  
2002-12-11 08:46:43 51°19.891 2°55.988 20.400883 0.002608 0.019587  
2002-12-11 08:46:48 51°19.901 2°56.011 20.400883 0.002608 0.019587  
2002-12-11 08:46:52 51°19.908 2°56.03 19.495825 0.002608 0.019586  
2002-12-11 08:46:58 51°19.92 2°56.059 19.998426 0.002608 0.019586  
2002-12-11 08:47:03 51°19.93 2°56.083 20.645854 0.002608 0.019586  
2002-12-11 08:47:08 51°19.94 2°56.107 20.178755 0.002608 0.019586  
2002-12-11 08:47:13 51°19.95 2°56.13 19.855882 0.002608 0.019586  
2002-12-11 08:47:18 51°19.96 2°56.154 19.855882 0.002608 0.019586  
2002-12-11 08:47:23 51°19.969 2°56.177 20.68117 0.002608 0.019586  
2002-12-11 08:47:28 51°19.979 2°56.202 20.544739 0.002608 0.019586  
2002-12-11 08:47:32 51°19.987 2°56.221 20.517108 0.002608 0.019586  
2002-12-11 08:47:38 51°19.999 2°56.25 20.5667 0.002608 0.019585  
2002-12-11 08:47:41 51°20.004 2°56.264 20.40044 0.002608 0.019585  
2002-12-11 08:47:48 51°20.018 2°56.297 20.40044 0.002608 0.019585  
2002-12-11 08:47:53 51°20.028 2°56.32 20.67115 0.002608 0.019585  
2002-12-11 08:47:58 51°20.038 2°56.344 19.75525 0.002608 0.019585  
2002-12-11 08:48:03 51°20.048 2°56.368 20.33406 0.002608 0.019585  
2002-12-11 08:48:08 51°20.058 2°56.391 20.333013 0.002608 0.019585  
2002-12-11 08:48:11 51°20.064 2°56.406 19.995148 0.002608 0.019585  
2002-12-11 08:48:18 51°20.077 2°56.439 19.995148 0.002608 0.019585  
2002-12-11 08:48:23 51°20.087 2°56.463 20.267335 0.002608 0.019584  
2002-12-11 08:48:28 51°20.097 2°56.487 20.332409 0.002608 0.019584  
2002-12-11 08:48:32 51°20.104 2°56.507 20.362648 0.002608 0.019584  
2002-12-11 08:48:38 51°20.113 2°56.538 20.038031 0.002608 0.019584  
2002-12-11 08:48:43 51°20.12 2°56.563 20.858565 0.002608 0.019585  
2002-12-11 08:48:48 51°20.126 2°56.59 20.858565 0.002608 0.019585  
2002-12-11 08:48:53 51°20.132 2°56.617 20.468084 0.002505 0.01908  
2002-12-11 08:48:58 51°20.136 2°56.644 20.398388 0.002608 0.019585  
2002-12-11 08:49:04 51°20.14 2°56.678 20.437126 0.002505 0.019081  
2002-12-11 08:49:08 51°20.143 2°56.7 20.161598 0.002608 0.019586  
2002-12-11 08:49:14 51°20.148 2°56.733 20.153524 0.002505 0.01908  
2002-12-11 08:49:18 51°20.151 2°56.755 20.153524 0.002505 0.01908  
2002-12-11 08:49:23 51°20.156 2°56.782 20.025331 0.002505 0.019079  
2002-12-11 08:49:28 51°20.161 2°56.809 19.859774 0.002505 0.019079  
2002-12-11 08:49:32 51°20.165 2°56.831 19.981186 0.002505 0.019078  
2002-12-11 08:49:38 51°20.171 2°56.864 19.49448 0.002505 0.019077  
2002-12-11 08:49:43 51°20.177 2°56.89 20.179844 0.002505 0.019077  
2002-12-11 08:49:48 51°20.182 2°56.918 20.179844 0.002505 0.019077  
2002-12-11 08:49:53 51°20.189 2°56.944 19.943492 0.002505 0.019076  
2002-12-11 08:49:58 51°20.194 2°56.971 20.780089 0.002505 0.019075  
2002-12-11 08:50:04 51°20.201 2°57.004 20.03152 0.002505 0.019075  
2002-12-11 08:50:08 51°20.205 2°57.026 20.659966 0.002505 0.019074  
2002-12-11 08:50:14 51°20.212 2°57.058 20.019749 0.002505 0.019074  
2002-12-11 08:50:18 51°20.216 2°57.08 20.019749 0.002505 0.019074  
2002-12-11 08:50:22 51°20.22 2°57.102 20.825897 0.002505 0.019074  
2002-12-11 08:50:28 51°20.227 2°57.134 20.409734 0.002505 0.019074  
2002-12-11 08:50:32 51°20.231 2°57.156 19.724667 0.002505 0.019074  
2002-12-11 08:50:38 51°20.237 2°57.188 19.789798 0.002505 0.019074  
2002-12-11 08:50:42 51°20.242 2°57.21 20.045028 0.002505 0.019074  
2002-12-11 08:50:48 51°20.248 2°57.242 20.045028 0.002505 0.019074  
2002-12-11 08:50:53 51°20.253 2°57.269 20.458637 0.002505 0.019074  
2002-12-11 08:50:58 51°20.258 2°57.297 20.354758 0.002505 0.019074  
2002-12-11 08:51:03 51°20.264 2°57.324 20.049435 0.002505 0.019074  
2002-12-11 08:51:08 51°20.269 2°57.35 19.594875 0.002505 0.019074  
2002-12-11 08:51:13 51°20.274 2°57.377 20.575972 0.002505 0.019074  
2002-12-11 08:51:18 51°20.28 2°57.405 20.575972 0.002505 0.019074  
2002-12-11 08:51:24 51°20.286 2°57.437 19.697037 0.002505 0.019074  
2002-12-11 08:51:28 51°20.29 2°57.458 20.423894 0.002505 0.019074  
2002-12-11 08:51:33 51°20.296 2°57.485 20.441067 0.002505 0.019074  
2002-12-11 08:51:38 51°20.301 2°57.512 20.814458 0.002505 0.019075  
2002-12-11 08:51:44 51°20.308 2°57.544 20.408406 0.002505 0.019075  
2002-12-11 08:51:48 51°20.312 2°57.566 20.408406 0.002505 0.019075  
2002-12-11 08:51:52 51°20.318 2°57.588 19.876072 0.002505 0.019075  
2002-12-11 08:51:57 51°20.322 2°57.615 19.693461 0.002505 0.019075  
2002-12-11 08:52:04 51°20.331 2°57.652 19.817675 0.002505 0.019075  
2002-12-11 08:52:08 51°20.335 2°57.674 20.616457 0.002505 0.019075  
2002-12-11 08:52:13 51°20.34 2°57.701 20.080605 0.002505 0.019075  
2002-12-11 08:52:18 51°20.346 2°57.728 20.080605 0.002505 0.019075  
2002-12-11 08:52:22 51°20.351 2°57.749 19.97985 0.002505 0.019075  
2002-12-11 08:52:28 51°20.357 2°57.781 20.211763 0.002505 0.019075  
2002-12-11 08:52:33 51°20.362 2°57.809 20.50594 0.002505 0.019075  
2002-12-11 08:52:38 51°20.368 2°57.836 20.306628 0.002401 0.018571  
2002-12-11 08:52:44 51°20.374 2°57.868 20.599688 0.002505 0.019075  
2002-12-11 08:52:48 51°20.379 2°57.889 20.599688 0.002505 0.019075  
2002-12-11 08:52:53 51°20.384 2°57.917 19.811914 0.002401 0.018571  
2002-12-11 08:52:58 51°20.389 2°57.944 19.38843 0.002401 0.018571  
2002-12-11 08:53:03 51°20.395 2°57.971 19.66403 0.002401 0.018571  
2002-12-11 08:53:08 51°20.4 2°57.998 20.085213 0.002401 0.018571  
2002-12-11 08:53:13 51°20.406 2°58.025 20.107761 0.002401 0.018571  
2002-12-11 08:53:18 51°20.411 2°58.052 20.107761 0.002401 0.018571  
2002-12-11 08:53:23 51°20.417 2°58.078 20.14565 0.002401 0.018571  
2002-12-11 08:53:28 51°20.423 2°58.105 20.02618 0.002401 0.018571  
2002-12-11 08:53:33 51°20.428 2°58.132 20.120003 0.002401 0.018571  
2002-12-11 08:53:38 51°20.434 2°58.159 19.9639 0.002401 0.018571  
2002-12-11 08:53:43 51°20.439 2°58.186 19.507725 0.002401 0.018571  
2002-12-11 08:53:48 51°20.445 2°58.212 19.507725 0.002401 0.018571  
2002-12-11 08:53:53 51°20.449 2°58.239 20.061525 0.002401 0.018571  
2002-12-11 08:53:58 51°20.455 2°58.266 19.888434 0.002401 0.018571  
2002-12-11 08:54:03 51°20.46 2°58.292 19.52997 0.002401 0.018572  
2002-12-11 08:54:08 51°20.466 2°58.319 20.365627 0.002401 0.018572  
2002-12-11 08:54:13 51°20.471 2°58.346 19.753585 0.002401 0.018571  
2002-12-11 08:54:18 51°20.477 2°58.372 19.753585 0.002401 0.018571  
2002-12-11 08:54:23 51°20.482 2°58.399 19.314263 0.002401 0.018572  
2002-12-11 08:54:28 51°20.488 2°58.425 19.623969 0.002401 0.018571  
2002-12-11 08:54:33 51°20.493 2°58.452 20.340785 0.002401 0.018571  
2002-12-11 08:54:38 51°20.499 2°58.477 20.124608 0.002401 0.018572  
2002-12-11 08:54:43 51°20.504 2°58.504 19.612618 0.002401 0.018572  
2002-12-11 08:54:48 51°20.51 2°58.53 19.612618 0.002401 0.018572  
2002-12-11 08:54:52 51°20.514 2°58.552 20.166362 0.002401 0.018572  
2002-12-11 08:54:58 51°20.52 2°58.583 20.308522 0.002401 0.018572  
2002-12-11 08:55:04 51°20.527 2°58.615 19.372876 0.002401 0.018572  
2002-12-11 08:55:08 51°20.531 2°58.637 20.228222 0.002401 0.018572  
2002-12-11 08:55:13 51°20.537 2°58.663 19.503649 0.002401 0.018572  
2002-12-11 08:55:18 51°20.542 2°58.69 19.503649 0.002401 0.018572  
2002-12-11 08:55:23 51°20.548 2°58.717 19.520845 0.002401 0.018572  
2002-12-11 08:55:28 51°20.553 2°58.744 19.488284 0.002401 0.018572  
2002-12-11 08:55:33 51°20.559 2°58.77 19.150949 0.002401 0.018572  
2002-12-11 08:55:38 51°20.565 2°58.797 19.846961 0.002297 0.01807  
2002-12-11 08:55:44 51°20.571 2°58.829 19.8266 0.002401 0.018572  
2002-12-11 08:55:48 51°20.576 2°58.85 19.8266 0.002401 0.018572  
2002-12-11 08:55:53 51°20.58 2°58.877 19.24832 0.002297 0.01807  
2002-12-11 08:55:57 51°20.585 2°58.898 19.538769 0.002297 0.01807  
2002-12-11 08:56:03 51°20.591 2°58.93 19.164832 0.002297 0.01807  
2002-12-11 08:56:08 51°20.598 2°58.957 20.223301 0.002297 0.01807  
2002-12-11 08:56:13 51°20.602 2°58.983 18.861226 0.002297 0.01807  
2002-12-11 08:56:18 51°20.608 2°59.01 18.861226 0.002297 0.01807  
2002-12-11 08:56:23 51°20.613 2°59.037 20.155219 0.002297 0.01807  
2002-12-11 08:56:28 51°20.619 2°59.064 19.904523 0.002297 0.01807  
2002-12-11 08:56:32 51°20.623 2°59.085 19.705449 0.002297 0.01807  
2002-12-11 08:56:38 51°20.63 2°59.117 19.845663 0.002297 0.01807  
2002-12-11 08:56:43 51°20.636 2°59.143 19.976935 0.002297 0.01807  
2002-12-11 08:56:49 51°20.642 2°59.175 19.976935 0.002297 0.01807  
2002-12-11 08:56:53 51°20.646 2°59.197 19.535062 0.002297 0.01807  
2002-12-11 08:56:58 51°20.652 2°59.224 19.581239 0.002297 0.01807  
2002-12-11 08:57:03 51°20.658 2°59.25 19.841202 0.002297 0.01807  
2002-12-11 08:57:08 51°20.663 2°59.276 19.627142 0.002297 0.01807  
2002-12-11 08:57:14 51°20.669 2°59.308 19.726861 0.002297 0.01807  
2002-12-11 08:57:18 51°20.673 2°59.33 19.726861 0.002297 0.01807  
2002-12-11 08:57:23 51°20.679 2°59.356 19.475076 0.002297 0.01807  
2002-12-11 08:57:28 51°20.684 2°59.383 20.062495 0.002297 0.01807  
2002-12-11 08:57:34 51°20.69 2°59.416 20.043087 0.002297 0.01807  
2002-12-11 08:57:38 51°20.695 2°59.437 19.503364 0.002297 0.01807  
2002-12-11 08:57:42 51°20.7 2°59.458 19.517871 0.002297 0.01807  
2002-12-11 08:57:48 51°20.707 2°59.49 19.517871 0.002297 0.01807  
2002-12-11 08:57:53 51°20.713 2°59.518 19.99442 0.002297 0.01807  
2002-12-11 08:57:57 51°20.717 2°59.539 19.33755 0.002297 0.01807  
2002-12-11 08:58:04 51°20.725 2°59.576 19.704189 0.002297 0.01807  
2002-12-11 08:58:08 51°20.729 2°59.598 19.540195 0.002297 0.01807  
2002-12-11 08:58:12 51°20.734 2°59.619 20.090305 0.002297 0.01807  
2002-12-11 08:58:18 51°20.74 2°59.651 20.090305 0.002297 0.01807  
2002-12-11 08:58:23 51°20.745 2°59.678 20.011496 0.002297 0.01807  
2002-12-11 08:58:28 51°20.75 2°59.705 18.867024 0.002297 0.01807  
2002-12-11 08:58:32 51°20.754 2°59.726 18.655074 0.002297 0.01807  
2002-12-11 08:58:38 51°20.761 2°59.758 18.790737 0.002297 0.01807  
2002-12-11 08:58:44 51°20.767 2°59.79 18.967913 0.002297 0.01807  
2002-12-11 08:58:48 51°20.772 2°59.812 18.967913 0.002297 0.01807  
2002-12-11 08:58:53 51°20.777 2°59.838 19.956167 0.002297 0.01807  
2002-12-11 08:58:57 51°20.782 2°59.859 19.340696 0.002297 0.01807  
2002-12-11 08:59:02 51°20.787 2°59.886 19.188784 0.002297 0.01807  
2002-12-11 08:59:08 51°20.794 2°59.917 19.218456 0.002297 0.01807  
2002-12-11 08:59:13 51°20.799 2°59.944 19.402715 0.002297 0.01807  
2002-12-11 08:59:18 51°20.805 2°59.971 19.402715 0.002297 0.01807  
2002-12-11 08:59:23 51°20.811 2°59.997 20.55024 0.002193 0.017571  
2002-12-11 08:59:28 51°20.815 3°0.024 19.689925 0.002193 0.017571  
2002-12-11 08:59:34 51°20.822 3°0.056 19.401572 0.002297 0.01807  
2002-12-11 08:59:38 51°20.826 3°0.077 19.484371 0.002193 0.017571  
2002-12-11 08:59:43 51°20.832 3°0.104 20.375852 0.002193 0.017571  
2002-12-11 08:59:48 51°20.837 3°0.13 20.375852 0.002193 0.017571  
2002-12-11 08:59:53 51°20.842 3°0.157 20.13309 0.002193 0.017571  
2002-12-11 08:59:56 51°20.845 3°0.173 20.497985 0.002193 0.017571  
2002-12-11 09:00:04 51°20.854 3°0.216 19.69342 0.002193 0.017571  
2002-12-11 09:00:08 51°20.858 3°0.237 20.160912 0.002193 0.017571  
2002-12-11 09:00:13 51°20.862 3°0.264 19.555711 0.002193 0.017571  
2002-12-11 09:00:18 51°20.868 3°0.29 19.555711 0.002193 0.017571  
2002-12-11 09:00:23 51°20.874 3°0.316 20.366835 0.002193 0.017571  
2002-12-11 09:00:28 51°20.879 3°0.342 19.212359 0.002193 0.017571  
2002-12-11 09:00:33 51°20.885 3°0.368 19.696427 0.002193 0.017571  
2002-12-11 09:00:38 51°20.89 3°0.394 19.081449 0.002193 0.017572  
2002-12-11 09:00:43 51°20.895 3°0.42 19.489874 0.002193 0.017572  
2002-12-11 09:00:48 51°20.901 3°0.447 19.489874 0.002193 0.017572  
2002-12-11 09:00:53 51°20.907 3°0.474 19.085754 0.002193 0.017572  
2002-12-11 09:00:56 51°20.91 3°0.49 19.117683 0.002193 0.017572  
2002-12-11 09:01:04 51°20.918 3°0.533 19.811264 0.002193 0.017572  
2002-12-11 09:01:08 51°20.923 3°0.554 20.357777 0.002193 0.017572  
2002-12-11 09:01:12 51°20.927 3°0.575 19.909871 0.002193 0.017572  
2002-12-11 09:01:18 51°20.934 3°0.607 19.909871 0.002193 0.017572  
2002-12-11 09:01:23 51°20.939 3°0.634 19.607776 0.002193 0.017572  
2002-12-11 09:01:28 51°20.944 3°0.66 20.215556 0.002193 0.017572  
2002-12-11 09:01:33 51°20.95 3°0.687 19.830575 0.002193 0.017572  
2002-12-11 09:01:38 51°20.955 3°0.714 19.955924 0.002193 0.017572  
2002-12-11 09:01:42 51°20.959 3°0.735 19.963212 0.002193 0.017572  
2002-12-11 09:01:48 51°20.965 3°0.767 19.963212 0.002193 0.017572  
2002-12-11 09:01:52 51°20.97 3°0.788 19.421608 0.002193 0.017572  
2002-12-11 09:01:58 51°20.977 3°0.82 19.032397 0.002193 0.017572  
2002-12-11 09:02:04 51°20.983 3°0.852 19.202537 0.002193 0.017572  
2002-12-11 09:02:08 51°20.988 3°0.873 19.960945 0.002193 0.017572  
2002-12-11 09:02:13 51°20.992 3°0.899 19.099732 0.002193 0.017572  
2002-12-11 09:02:18 51°20.998 3°0.926 19.099732 0.002193 0.017572  
2002-12-11 09:02:24 51°21.005 3°0.957 18.793619 0.002193 0.017572  
2002-12-11 09:02:28 51°21.01 3°0.978 19.731451 0.002193 0.017572  
2002-12-11 09:02:33 51°21.015 3°1.004 19.102888 0.002193 0.017572  
2002-12-11 09:02:38 51°21.021 3°1.031 19.126452 0.002193 0.017572  
2002-12-11 09:02:43 51°21.027 3°1.057 19.707725 0.002193 0.017572  
2002-12-11 09:02:48 51°21.033 3°1.084 19.707725 0.002193 0.017572  
2002-12-11 09:02:52 51°21.037 3°1.106 18.855262 0.002089 0.017075  
2002-12-11 09:02:58 51°21.042 3°1.137 19.379245 0.002089 0.017075  
2002-12-11 09:03:03 51°21.048 3°1.163 19.883044 0.002089 0.017075  
2002-12-11 09:03:08 51°21.054 3°1.189 18.894655 0.002089 0.017075  
2002-12-11 09:03:12 51°21.058 3°1.21 19.678015 0.002089 0.017076  
2002-12-11 09:03:18 51°21.064 3°1.242 19.678015 0.002089 0.017076  
2002-12-11 09:03:22 51°21.069 3°1.263 19.428788 0.002089 0.017075  
2002-12-11 09:03:28 51°21.074 3°1.295 19.176379 0.002089 0.017075  
2002-12-11 09:03:33 51°21.081 3°1.32 19.109282 0.002089 0.017076  
2002-12-11 09:03:38 51°21.086 3°1.348 19.650245 0.002089 0.017076  
2002-12-11 09:03:42 51°21.091 3°1.369 19.229503 0.002089 0.017076  
2002-12-11 09:03:48 51°21.097 3°1.401 19.229503 0.002089 0.017076  
2002-12-11 09:03:53 51°21.103 3°1.427 19.617175 0.002089 0.017076  
2002-12-11 09:03:58 51°21.108 3°1.454 19.700004 0.002089 0.017076  
2002-12-11 09:04:04 51°21.115 3°1.486 19.499085 0.002089 0.017076  
2002-12-11 09:04:08 51°21.119 3°1.507 19.635115 0.002089 0.017076  
2002-12-11 09:04:13 51°21.125 3°1.533 18.568559 0.002089 0.017076  
2002-12-11 09:04:16 51°21.128 3°1.549 18.568559 0.002089 0.017076  
2002-12-11 09:04:24 51°21.136 3°1.592 19.603991 0.002089 0.017075  
2002-12-11 09:04:28 51°21.141 3°1.612 19.426218 0.002089 0.017076  
2002-12-11 09:04:33 51°21.146 3°1.639 19.218211 0.002089 0.017076  
2002-12-11 09:04:37 51°21.15 3°1.66 19.555467 0.002089 0.017076  
2002-12-11 09:04:43 51°21.157 3°1.692 19.316224 0.002089 0.017076  
2002-12-11 09:04:48 51°21.163 3°1.718 19.316224 0.002089 0.017076  
2002-12-11 09:04:52 51°21.167 3°1.739 19.306621 0.002089 0.017075  
2002-12-11 09:04:58 51°21.174 3°1.77 19.194678 0.002089 0.017076  
2002-12-11 09:05:04 51°21.18 3°1.802 19.61571 0.002089 0.017075  
2002-12-11 09:05:08 51°21.184 3°1.823 19.337836 0.002089 0.017076  
2002-12-11 09:05:13 51°21.19 3°1.85 19.736081 0.002089 0.017076  
2002-12-11 09:05:18 51°21.195 3°1.876 19.736081 0.002089 0.017076  
2002-12-11 09:05:24 51°21.201 3°1.907 19.158894 0.002089 0.017076  
2002-12-11 09:05:28 51°21.205 3°1.929 19.491463 0.002089 0.017076  
2002-12-11 09:05:33 51°21.212 3°1.955 18.947829 0.002089 0.017075  
2002-12-11 09:05:38 51°21.217 3°1.981 19.538769 0.002089 0.017076  
2002-12-11 09:05:42 51°21.221 3°2.002 19.466841 0.002089 0.017075  
2002-12-11 09:05:48 51°21.228 3°2.033 19.466841 0.002089 0.017075  
2002-12-11 09:05:52 51°21.231 3°2.055 19.507439 0.002089 0.017075  
2002-12-11 09:05:58 51°21.238 3°2.086 18.876729 0.002089 0.017076  
2002-12-11 09:06:04 51°21.244 3°2.117 19.802946 0.002089 0.017076  
2002-12-11 09:06:08 51°21.248 3°2.138 19.560924 0.002089 0.017076  
2002-12-11 09:06:13 51°21.255 3°2.164 20.1259 0.002089 0.017075  
2002-12-11 09:06:18 51°21.26 3°2.19 20.1259 0.002089 0.017075  
2002-12-11 09:06:24 51°21.267 3°2.221 19.412101 0.002089 0.017075  
2002-12-11 09:06:28 51°21.27 3°2.243 18.89745 0.002089 0.017075  
2002-12-11 09:06:33 51°21.276 3°2.268 20.179925 0.002089 0.017075  
2002-12-11 09:06:38 51°21.282 3°2.295 19.347599 0.002089 0.017075  
2002-12-11 09:06:44 51°21.289 3°2.326 19.55111 0.002089 0.017075  
2002-12-11 09:06:48 51°21.293 3°2.347 19.55111 0.002089 0.017075  
2002-12-11 09:06:52 51°21.297 3°2.368 19.438783 0.002089 0.017075  
2002-12-11 09:06:58 51°21.303 3°2.399 19.495376 0.002089 0.017075  
2002-12-11 09:07:02 51°21.308 3°2.42 18.680438 0.002089 0.017075  
2002-12-11 09:07:08 51°21.315 3°2.452 19.311688 0.002089 0.017075  
2002-12-11 09:07:13 51°21.321 3°2.478 19.459052 0.002089 0.017075  
2002-12-11 09:07:18 51°21.326 3°2.504 19.459052 0.002089 0.017075  
2002-12-11 09:07:24 51°21.333 3°2.535 20.321816 0.002089 0.017075  
2002-12-11 09:07:28 51°21.337 3°2.556 19.039618 0.001985 0.016581  
2002-12-11 09:07:32 51°21.341 3°2.577 19.483596 0.001985 0.016581  
2002-12-11 09:07:38 51°21.347 3°2.609 19.519989 0.002089 0.017075  
2002-12-11 09:07:44 51°21.353 3°2.64 19.366955 0.001985 0.01658  
2002-12-11 09:07:48 51°21.358 3°2.661 19.366955 0.001985 0.01658  
2002-12-11 09:07:53 51°21.363 3°2.686 19.631413 0.001985 0.01658  
2002-12-11 09:07:58 51°21.368 3°2.712 18.941667 0.001985 0.01658  
2002-12-11 09:08:04 51°21.375 3°2.744 19.439435 0.001985 0.01658  
2002-12-11 09:08:08 51°21.38 3°2.765 19.624416 0.001985 0.01658  
2002-12-11 09:08:12 51°21.384 3°2.786 20.049476 0.001985 0.01658  
2002-12-11 09:08:18 51°21.39 3°2.818 20.049476 0.001985 0.01658  
2002-12-11 09:08:23 51°21.396 3°2.844 18.863652 0.001985 0.01658  
2002-12-11 09:08:28 51°21.401 3°2.87 19.626328 0.001985 0.01658  
2002-12-11 09:08:32 51°21.405 3°2.891 19.482496 0.001985 0.01658  
2002-12-11 09:08:38 51°21.412 3°2.922 19.418507 0.001985 0.01658  
2002-12-11 09:08:42 51°21.416 3°2.943 19.895486 0.001985 0.01658  
2002-12-11 09:08:48 51°21.423 3°2.974 19.895486 0.001985 0.01658  
2002-12-11 09:08:52 51°21.427 3°2.995 19.702808 0.001985 0.01658  
2002-12-11 09:08:58 51°21.434 3°3.027 19.3284 0.001985 0.016579  
2002-12-11 09:09:02 51°21.438 3°3.048 19.014794 0.001985 0.016579  
2002-12-11 09:09:08 51°21.445 3°3.08 18.824365 0.001985 0.016579  
2002-12-11 09:09:13 51°21.45 3°3.106 19.444452 0.001985 0.016579  
2002-12-11 09:09:18 51°21.456 3°3.132 19.444452 0.001985 0.016579  
2002-12-11 09:09:22 51°21.46 3°3.154 19.755413 0.001985 0.016579  
2002-12-11 09:09:28 51°21.467 3°3.185 19.201104 0.001985 0.016579  
2002-12-11 09:09:32 51°21.471 3°3.207 19.871288 0.001985 0.016579  
2002-12-11 09:09:38 51°21.478 3°3.238 19.326929 0.001985 0.016579  
2002-12-11 09:09:43 51°21.483 3°3.265 19.438252 0.001985 0.016579  
2002-12-11 09:09:48 51°21.488 3°3.291 19.438252 0.001985 0.016579  
2002-12-11 09:09:53 51°21.494 3°3.318 19.505891 0.001985 0.016579  
2002-12-11 09:09:58 51°21.499 3°3.344 19.523941 0.001985 0.016579  
2002-12-11 09:10:02 51°21.504 3°3.366 19.355195 0.001985 0.016579  
2002-12-11 09:10:08 51°21.51 3°3.398 19.518033 0.001985 0.016578  
2002-12-11 09:10:13 51°21.516 3°3.424 19.898201 0.001985 0.016578  
2002-12-11 09:10:18 51°21.521 3°3.45 19.898201 0.001985 0.016578  
2002-12-11 09:10:24 51°21.528 3°3.483 19.885557 0.001985 0.016578  
2002-12-11 09:10:28 51°21.532 3°3.504 18.865297 0.001985 0.016578  
2002-12-11 09:10:32 51°21.537 3°3.525 19.396267 0.001985 0.016578  
2002-12-11 09:10:38 51°21.543 3°3.557 19.387205 0.001985 0.016578  
2002-12-11 09:10:43 51°21.549 3°3.582 19.604968 0.001985 0.016578  
2002-12-11 09:10:48 51°21.554 3°3.609 19.604968 0.001985 0.016578  
2002-12-11 09:10:52 51°21.559 3°3.63 19.787565 0.001985 0.016578  
2002-12-11 09:10:58 51°21.566 3°3.662 20.257781 0.001985 0.016578  
2002-12-11 09:11:04 51°21.572 3°3.694 18.669345 0.001985 0.016578  
2002-12-11 09:11:08 51°21.577 3°3.715 20.057724 0.001985 0.016577  
2002-12-11 09:11:13 51°21.582 3°3.741 19.81662 0.001985 0.016578  
2002-12-11 09:11:18 51°21.588 3°3.768 19.81662 0.001985 0.016578  
2002-12-11 09:11:22 51°21.592 3°3.789 19.15185 0.001985 0.016577  
2002-12-11 09:11:28 51°21.599 3°3.821 19.334977 0.001985 0.016577  
2002-12-11 09:11:32 51°21.603 3°3.842 19.171711 0.001985 0.016577  
2002-12-11 09:11:38 51°21.61 3°3.874 18.960193 0.001985 0.016577  
2002-12-11 09:11:43 51°21.615 3°3.9 20.050972 0.001985 0.016577  
2002-12-11 09:11:48 51°21.62 3°3.926 20.050972 0.001985 0.016577  
2002-12-11 09:11:53 51°21.626 3°3.953 19.365486 0.001985 0.016577  
2002-12-11 09:11:56 51°21.629 3°3.969 19.924739 0.001985 0.016577  
2002-12-11 09:12:03 51°21.636 3°4.007 20.075876 0.001985 0.016577  
2002-12-11 09:12:08 51°21.643 3°4.033 19.40647 0.001985 0.016577  
2002-12-11 09:12:12 51°21.646 3°4.054 18.82848 0.001985 0.016577  
2002-12-11 09:12:18 51°21.653 3°4.086 18.82848 0.001985 0.016577  
2002-12-11 09:12:24 51°21.659 3°4.117 19.559784 0.001985 0.016577  
2002-12-11 09:12:28 51°21.664 3°4.139 19.232653 0.001881 0.016085  
2002-12-11 09:12:33 51°21.669 3°4.165 18.837038 0.001985 0.016576  
2002-12-11 09:12:38 51°21.674 3°4.192 19.034203 0.001881 0.016084  
2002-12-11 09:12:43 51°21.68 3°4.218 18.428448 0.001985 0.016576  
2002-12-11 09:12:48 51°21.685 3°4.245 18.428448 0.001985 0.016576  
2002-12-11 09:12:53 51°21.691 3°4.272 19.916799 0.001985 0.016576  
2002-12-11 09:12:58 51°21.697 3°4.298 19.309727 0.001985 0.016576  
2002-12-11 09:13:03 51°21.702 3°4.325 18.941955 0.001881 0.016084  
2002-12-11 09:13:08 51°21.707 3°4.352 19.061234 0.001985 0.016576  
2002-12-11 09:13:13 51°21.713 3°4.378 19.121002 0.001985 0.016576  
2002-12-11 09:13:18 51°21.719 3°4.404 19.121002 0.001985 0.016576  
2002-12-11 09:13:23 51°21.724 3°4.431 19.558969 0.001881 0.016084  
2002-12-11 09:13:28 51°21.729 3°4.458 19.52773 0.001881 0.016083  
2002-12-11 09:13:32 51°21.733 3°4.479 19.140995 0.001881 0.016083  
2002-12-11 09:13:38 51°21.74 3°4.511 19.085303 0.001881 0.016083  
2002-12-11 09:13:42 51°21.744 3°4.532 19.086902 0.001881 0.016083  
2002-12-11 09:13:48 51°21.751 3°4.564 19.086902 0.001881 0.016083  
2002-12-11 09:13:53 51°21.756 3°4.591 19.122518 0.001881 0.016083  
2002-12-11 09:13:58 51°21.762 3°4.617 19.005971 0.001881 0.016083  
2002-12-11 09:14:04 51°21.768 3°4.649 19.649513 0.001881 0.016083  
2002-12-11 09:14:08 51°21.773 3°4.67 19.11797 0.001881 0.016083  
2002-12-11 09:14:13 51°21.778 3°4.697 19.293706 0.001881 0.016083  
2002-12-11 09:14:18 51°21.783 3°4.723 19.293706 0.001881 0.016083  
2002-12-11 09:14:23 51°21.789 3°4.749 18.621116 0.001881 0.016083  
2002-12-11 09:14:28 51°21.795 3°4.776 19.133294 0.001881 0.016083  
2002-12-11 09:14:33 51°21.8 3°4.802 19.105921 0.001881 0.016083  
2002-12-11 09:14:38 51°21.805 3°4.829 20.240684 0.001881 0.016082  
2002-12-11 09:14:42 51°21.81 3°4.85 18.918617 0.001881 0.016082  
2002-12-11 09:14:48 51°21.817 3°4.882 18.918617 0.001881 0.016082  
2002-12-11 09:14:53 51°21.822 3°4.908 19.597927 0.001881 0.016082  
2002-12-11 09:14:58 51°21.828 3°4.935 19.726089 0.001881 0.016082  
2002-12-11 09:15:02 51°21.833 3°4.956 19.589543 0.001881 0.016082  
2002-12-11 09:15:08 51°21.839 3°4.988 19.605253 0.001881 0.016082  
2002-12-11 09:15:12 51°21.844 3°5.009 19.509477 0.001881 0.016082  
2002-12-11 09:15:18 51°21.85 3°5.041 19.509477 0.001881 0.016082  
2002-12-11 09:15:24 51°21.856 3°5.073 19.74989 0.001881 0.016082  
2002-12-11 09:15:28 51°21.861 3°5.094 18.593253 0.001881 0.016082  
2002-12-11 09:15:33 51°21.866 3°5.12 20.044098 0.001881 0.016081  
2002-12-11 09:15:38 51°21.872 3°5.147 19.010526 0.001881 0.016081  
2002-12-11 09:15:44 51°21.878 3°5.178 18.900081 0.001881 0.016081  
2002-12-11 09:15:48 51°21.883 3°5.199 18.900081 0.001881 0.016081  
2002-12-11 09:15:52 51°21.887 3°5.22 19.416834 0.001881 0.016081  
2002-12-11 09:15:58 51°21.894 3°5.252 19.190749 0.001881 0.016081  
2002-12-11 09:16:04 51°21.9 3°5.284 18.971814 0.001881 0.016081  
2002-12-11 09:16:08 51°21.905 3°5.305 19.458074 0.001881 0.016081  
2002-12-11 09:16:13 51°21.911 3°5.331 19.099732 0.001881 0.01608  
2002-12-11 09:16:18 51°21.915 3°5.358 19.099732 0.001881 0.01608  
2002-12-11 09:16:23 51°21.921 3°5.385 19.146566 0.001881 0.01608  
2002-12-11 09:16:28 51°21.926 3°5.411 19.151973 0.001881 0.01608  
2002-12-11 09:16:32 51°21.931 3°5.432 19.166102 0.001881 0.01608  
2002-12-11 09:16:37 51°21.936 3°5.459 19.324763 0.001881 0.01608  
2002-12-11 09:16:44 51°21.944 3°5.496 19.271794 0.001881 0.01608  
2002-12-11 09:16:48 51°21.948 3°5.517 19.271794 0.001881 0.01608  
2002-12-11 09:16:53 51°21.954 3°5.543 18.779703 0.001881 0.016079  
2002-12-11 09:16:58 51°21.959 3°5.569 19.129893 0.001881 0.016079  
2002-12-11 09:17:03 51°21.965 3°5.596 19.343555 0.001881 0.016079  
2002-12-11 09:17:08 51°21.97 3°5.622 19.089772 0.001881 0.016079  
2002-12-11 09:17:12 51°21.974 3°5.643 18.744529 0.001881 0.016078  
2002-12-11 09:17:18 51°21.981 3°5.675 18.744529 0.001881 0.016078  
2002-12-11 09:17:24 51°21.987 3°5.706 18.277809 0.001881 0.016078  
2002-12-11 09:17:28 51°21.992 3°5.727 18.448227 0.001881 0.016078  
2002-12-11 09:17:32 51°21.996 3°5.748 19.164382 0.001881 0.016078  
2002-12-11 09:17:38 51°22.004 3°5.78 19.791543 0.001881 0.016077  
2002-12-11 09:17:44 51°22.009 3°5.812 18.912905 0.001881 0.016077  
2002-12-11 09:17:48 51°22.014 3°5.832 18.912905 0.001881 0.016077